Wind_Speed
17 17 14 8 7 7 7 7 5 5 5 5 5 7 8 8 9 9 5 4 9 15 14 15 14 16 16 13 12 11 11 12 14 17 24 20 16 15 13 10 12 12 17
16 16 11 10 7 8 8 8 8 7 7 6 6 7 8 9 9 9 6 9 12 17 13 14 11 13 15 14 11 8 7 16 17 20 24 22 19 15 11 7 11 17 19
13 14 13 10 8 9 11 10 10 9 8 8 8 6 7 9 10 9 11 11 12 15 12 11 9 10 12 10 8 11 18 21 19 16 14 17 16 12 10 8 15 16 15
11 11 8 8 11 9 12 11 11 10 11 10 9 8 7 8 10 10 12 11 10 12 11 11 9 10 13 11 14 14 18 16 14 14 13 10 9 8 7 10 12 13 14
11 9 8 10 10 13 7 17 12 12 13 11 10 9 7 8 10 11 14 13 11 9 9 12 9 11 15 15 15 15 14 14 14 12 4 11 14 11 10 9 12 13 12
11 10 9 8 8 11 17 8 19 14 12 11 10 10 9 8 9 14 16 15 13 9 10 10 11 13 17 17 17 15 18 15 13 7 5 8 11 10 9 10 10 8 10
13 14 10 8 9 8 13 12 7 7 11 11 9 10 10 10 11 14 16 14 13 9 10 8 10 11 15 17 18 18 15 13 10 8 8 11 7 7 9 11 10 9 9
16 16 16 12 11 10 7 10 8 14 13 8 9 8 10 10 11 13 17 16 15 9 10 8 9 9 13 17 18 17 16 12 10 8 8 10 9 7 8 6 9 8 11
19 14 14 14 12 10 8 8 6 12 20 12 10 9 9 10 11 12 15 16 14 12 9 9 9 9 12 15 17 16 13 12 10 9 3 4 13 10 5 2 5 7 8
17 15 12 11 11 10 8 7 11 18 13 21 14 10 10 8 10 13 15 16 16 15 11 11 11 11 11 14 15 16 14 11 9 7 3 3 7 9 2 3 5 6 7
14 14 12 11 11 10 7 9 9 13 17 13 14 11 12 9 9 11 15 18 19 18 16 14 11 10 12 14 15 18 13 10 10 7 2 4 6 3 3 4 5 6 7
15 15 13 11 10 9 8 9 12 12 17 17 19 20 15 18 10 11 12 18 20 21 21 15 13 11 12 12 16 15 11 9 6 4 2 4 1 1 3 5 6 7 9
15 15 15 13 11 9 7 5 10 14 16 19 20 19 17 17 16 12 13 18 22 24 23 21 17 12 12 13 13 11 10 7 4 4 3 3 2 1 4 6 7 7 8
14 16 16 14 13 11 8 8 10 12 17 19 20 21 19 16 24 14 15 18 23 26 28 19 18 16 12 12 10 11 9 7 6 5 5 4 3 3 3 4 4 4 8
14 15 15 15 14 11 10 8 8 10 11 17 22 20 19 21 19 19 16 19 22 25 25 22 17 19 16 12 11 10 8 7 4 4 3 2 2 2 3 3 0 3 4
14 16 16 15 14 12 11 10 10 11 12 13 12 17 19 22 23 16 21 21 22 23 21 18 19 19 17 14 12 10 8 5 3 4 4 4 1 1 2 2 3 4 6
15 15 16 16 14 13 12 11 10 10 15 13 12 14 15 19 24 26 29 26 25 24 23 20 19 19 16 15 13 11 7 4 1 1 3 3 2 3 2 3 4 6 8
16 16 16 17 16 14 13 11 11 10 12 13 11 13 17 17 27 32 24 27 27 27 28 23 22 22 20 17 14 10 6 3 2 2 3 3 5 5 4 4 6 8 9
16 15 17 17 17 15 14 10 10 11 11 11 9 12 15 20 29 31 26 22 27 29 31 26 25 24 23 17 14 9 6 4 3 4 3 3 5 6 6 7 9 9 9
16 16 18 18 17 16 14 12 7 9 10 11 9 11 14 23 31 38 32 26 27 31 30 28 26 25 20 16 13 9 9 4 4 5 5 5 4 6 7 7 7 8 4
16 16 18 18 16 15 14 12 5 7 9 10 10 7 8 18 27 35 34 29 27 32 30 28 26 23 21 18 15 12 12 8 8 9 6 6 6 6 7 6 6 6 5
18 17 17 16 13 11 10 11 7 1 5 4 3 3 7 14 26 31 30 31 28 29 27 27 24 25 23 21 20 13 7 9 11 7 6 7 8 8 7 6 7 6 5
17 18 16 14 12 11 12 9 6 3 0 2 1 2 5 6 28 34 29 28 26 28 26 24 22 22 25 23 19 10 7 7 14 8 5 3 3 3 4 3 6 7 8
17 16 15 13 12 11 11 9 6 1 1 3 2 2 3 0 29 25 28 27 23 25 26 24 20 21 21 21 21 17 8 11 8 7 5 4 5 5 6 7 8 10 12
13 15 14 13 13 10 10 9 6 2 3 4 4 2 8 12 6 22 28 26 24 25 25 23 21 19 19 19 20 20 16 12 10 7 8 10 11 10 11 11 13 13 13
14 15 13 12 11 9 9 9 6 4 3 4 5 3 10 12 11 10 13 19 20 19 21 22 22 20 19 18 15 15 17 16 12 12 13 13 13 14 16 15 15 14 12
Wind_Direction
354 345 310 297 267 241 228 232 220 219 208 189 179 179 176 167 176 165 152 126 125 123 116 121 129 122 129 132 136 124 106 96 120 105 103 107 120 110 114 96 76 78 102
351 347 309 279 303 247 234 231 227 218 212 202 187 184 186 180 178 170 150 128 121 119 125 143 151 144 138 139 134 122 104 108 111 121 114 113 109 111 115 103 81 88 91
352 349 339 277 290 248 231 232 231 229 212 204 192 190 188 179 178 167 148 137 142 135 150 164 171 152 151 150 142 109 115 107 106 112 122 128 124 125 107 108 94 95 90
348 349 330 329 290 285 238 230 236 231 220 207 202 195 196 182 183 175 161 145 155 147 142 134 144 146 144 123 118 116 117 110 118 115 111 124 127 120 108 89 104 117 109
330 337 344 305 300 283 290 230 220 227 221 210 206 202 202 192 185 184 168 153 163 152 143 125 131 131 140 130 124 114 113 107 106 114 108 107 98 101 105 133 111 109 123
319 319 338 341 320 286 263 271 234 225 219 219 211 209 205 201 191 181 174 160 177 180 134 143 128 132 142 141 132 129 118 123 123 116 99 82 110 121 113 93 99 128 92
339 326 310 327 333 318 285 274 269 194 189 203 208 220 212 209 198 187 184 175 176 182 154 146 136 139 143 144 141 125 122 127 133 116 98 94 100 95 88 99 101 93 86
339 335 327 310 294 323 333 273 219 209 222 198 188 207 210 207 202 198 190 184 184 205 175 149 136 140 147 150 147 136 128 135 140 141 133 131 110 98 114 97 96 74 63
327 333 331 329 316 290 306 265 245 219 205 195 208 201 204 208 209 201 196 194 196 201 193 166 155 146 153 154 158 152 144 144 149 151 171 148 137 143 166 90 53 62 62
322 331 329 329 333 312 286 267 216 213 199 202 195 210 212 205 212 214 209 208 208 205 197 172 158 158 152 153 157 156 156 155 170 157 147 129 156 187 207 67 74 64 63
322 328 332 326 329 324 285 264 253 219 211 188 208 232 234 223 220 225 219 214 208 209 194 175 168 156 153 147 150 157 161 155 177 187 208 224 110 73 73 67 59 62 67
323 325 330 324 323 324 316 258 246 230 206 215 236 226 222 220 227 237 229 218 208 208 207 184 174 165 148 153 149 161 164 158 177 181 193 217 309 40 69 67 66 73 80
328 324 326 321 313 306 305 297 259 234 230 225 224 215 215 213 216 226 234 223 207 208 174 178 175 158 153 148 151 151 151 158 154 135 119 180 212 113 93 84 86 72 62
329 328 326 325 316 302 289 276 245 245 232 233 231 231 229 213 209 228 235 226 213 210 190 188 176 162 160 153 149 144 142 133 124 120 98 103 103 87 89 94 68 28 350
323 325 326 327 324 310 285 270 258 251 239 234 239 237 236 222 227 234 239 226 219 213 220 185 189 179 165 161 159 147 152 139 102 81 77 90 90 63 48 58 7 276 282
323 323 325 324 324 315 299 280 263 243 254 243 251 235 235 230 220 214 236 230 218 211 205 209 198 184 181 171 169 166 161 145 96 67 57 49 42 25 23 9 348 322 314
322 321 321 326 327 321 307 291 269 265 251 260 255 247 227 226 220 226 222 222 221 213 206 213 187 178 180 186 186 185 176 159 153 61 24 24 25 10 358 341 328 315 321
317 317 319 320 322 324 316 303 275 268 254 255 261 248 226 224 215 212 218 214 218 206 210 198 193 188 192 195 190 191 193 197 251 303 294 322 325 313 307 309 310 309 315
316 316 317 322 319 319 318 308 282 264 261 258 273 260 240 234 218 208 210 217 214 211 202 199 196 201 201 196 194 194 198 221 256 264 312 303 307 303 303 301 292 300 308
317 316 315 320 321 321 320 319 284 257 252 261 277 263 291 244 215 209 215 209 209 208 207 203 199 203 206 198 196 199 217 254 270 292 296 304 310 306 313 298 280 299 335
319 313 317 322 325 324 321 320 272 231 249 254 274 270 292 216 201 206 210 204 203 209 205 200 199 201 193 193 192 199 217 245 262 269 255 266 258 260 274 285 283 297 334
314 317 317 327 333 327 319 318 322 234 228 255 286 335 287 222 193 201 202 194 196 206 200 198 196 193 198 196 198 200 213 218 221 215 260 250 258 244 264 290 294 298 286
310 317 324 330 334 338 327 323 312 221 101 54 341 285 320 263 180 198 198 182 189 206 199 193 196 197 194 197 209 195 175 187 175 178 192 266 261 225 220 275 278 283 290
310 322 329 331 332 347 336 332 332 280 24 42 37 41 270 45 169 165 177 177 181 192 195 195 199 198 200 204 206 199 185 184 175 171 193 209 242 236 268 281 280 284 281
319 329 336 333 333 345 348 341 344 11 37 74 49 59 168 198 143 144 172 180 188 191 191 197 201 194 198 206 207 205 196 194 209 190 203 222 245 267 275 284 282 277 285
329 329 336 340 346 351 355 339 353 345 38 86 91 122 167 183 202 200 148 181 181 184 189 197 205 204 198 203 209 210 210 216 228 228 230 238 247 253 267 269 272 282 283
Height
1542 1541 1540 1540 1540 1540 1540 1541 1540 1541 1542 1542 1542 1543 1544 1545 1545 1546 1547 1547 1547 1548 1550 1550 1550 1550 1551 1551 1551 1550 1551 1551 1551 1551 1551 1553 1554 1554 1554 1554 1554 1553 1553
1543 1541 1539 1538 1538 1538 1539 1540 1539 1540 1541 1542 1542 1543 1543 1544 1545 1546 1546 1547 1548 1549 1550 1551 1551 1552 1552 1552 1552 1551 1551 1552 1553 1554 1553 1554 1555 1556 1555 1556 1555 1555 1556
1542 1540 1539 1538 1537 1537 1539 1540 1540 1540 1541 1541 1542 1543 1543 1543 1544 1547 1547 1548 1548 1549 1550 1551 1551 1552 1553 1552 1553 1553 1554 1554 1556 1556 1557 1556 1556 1557 1557 1557 1557 1558 1558
1542 1540 1538 1538 1537 1535 1536 1536 1538 1540 1540 1540 1541 1542 1542 1543 1544 1546 1547 1548 1549 1548 1549 1549 1550 1551 1552 1553 1554 1555 1556 1556 1556 1558 1558 1558 1558 1558 1559 1559 1558 1559 1560
1540 1538 1537 1537 1535 1534 1532 1532 1534 1537 1539 1539 1539 1541 1542 1542 1543 1545 1546 1548 1549 1549 1549 1548 1549 1551 1552 1555 1556 1556 1557 1558 1559 1559 1558 1558 1558 1560 1560 1560 1559 1560 1560
1538 1536 1536 1534 1533 1532 1532 1531 1529 1533 1536 1537 1538 1539 1540 1541 1542 1543 1545 1547 1548 1548 1548 1549 1549 1551 1552 1554 1556 1556 1558 1560 1560 1560 1559 1559 1559 1560 1560 1560 1559 1560 1560
1537 1534 1533 1533 1532 1530 1530 1529 1530 1527 1532 1534 1535 1538 1539 1540 1542 1543 1544 1545 1547 1548 1548 1549 1550 1551 1552 1553 1556 1558 1558 1559 1560 1561 1561 1561 1562 1561 1561 1561 1561 1561 1560
1535 1532 1530 1530 1530 1529 1528 1527 1527 1526 1528 1531 1532 1537 1538 1539 1541 1542 1543 1544 1545 1547 1548 1549 1550 1551 1552 1554 1556 1558 1559 1559 1560 1561 1562 1562 1563 1563 1563 1562 1562 1561 1561
1533 1531 1529 1527 1526 1526 1527 1526 1525 1527 1526 1528 1532 1534 1536 1537 1539 1541 1542 1544 1545 1546 1548 1549 1551 1551 1552 1554 1555 1559 1560 1559 1560 1561 1562 1562 1564 1564 1562 1562 1563 1563 1563
1531 1529 1528 1526 1525 1524 1524 1524 1523 1525 1524 1526 1527 1533 1535 1535 1537 1540 1541 1543 1545 1546 1547 1548 1550 1552 1552 1553 1555 1557 1559 1560 1561 1562 1562 1561 1563 1564 1563 1563 1563 1563 1562
1529 1527 1525 1524 1522 1522 1521 1521 1520 1522 1523 1523 1526 1530 1531 1533 1536 1538 1539 1541 1543 1545 1546 1547 1550 1552 1553 1552 1554 1556 1558 1559 1560 1562 1563 1562 1562 1563 1564 1564 1564 1563 1562
1527 1524 1523 1521 1520 1518 1518 1518 1518 1518 1520 1521 1522 1528 1529 1530 1533 1535 1536 1538 1541 1543 1544 1544 1547 1551 1552 1554 1555 1556 1558 1558 1559 1561 1563 1563 1563 1563 1564 1564 1564 1564 1563
1523 1521 1520 1518 1517 1516 1515 1515 1515 1514 1516 1519 1520 1521 1523 1525 1530 1532 1534 1536 1538 1540 1540 1544 1546 1549 1553 1554 1555 1557 1559 1560 1560 1561 1562 1563 1563 1563 1563 1563 1564 1566 1564
1521 1518 1517 1515 1514 1513 1512 1512 1512 1512 1512 1514 1515 1517 1520 1522 1525 1529 1532 1533 1535 1537 1538 1542 1545 1546 1552 1554 1556 1558 1559 1560 1561 1561 1562 1563 1564 1564 1563 1563 1563 1564 1564
1520 1517 1513 1511 1509 1509 1509 1509 1508 1508 1508 1509 1510 1513 1516 1519 1521 1527 1530 1532 1533 1535 1538 1539 1543 1545 1549 1554 1555 1558 1560 1561 1561 1562 1562 1563 1564 1564 1563 1562 1563 1564 1563
1519 1516 1512 1509 1507 1506 1504 1504 1504 1504 1504 1504 1505 1507 1510 1513 1518 1521 1526 1529 1531 1534 1536 1539 1540 1543 1546 1550 1554 1558 1560 1561 1561 1562 1562 1563 1563 1564 1563 1562 1562 1562 1561
1516 1513 1511 1508 1505 1502 1501 1500 1499 1499 1500 1499 1499 1502 1505 1507 1510 1514 1519 1524 1529 1532 1535 1539 1541 1544 1546 1550 1554 1557 1559 1560 1563 1562 1562 1563 1563 1563 1562 1561 1561 1560 1559
1514 1511 1508 1505 1503 1500 1497 1496 1495 1494 1495 1496 1496 1497 1498 1501 1505 1510 1514 1517 1524 1528 1532 1536 1540 1543 1546 1550 1552 1556 1558 1560 1563 1562 1562 1562 1562 1561 1560 1560 1559 1558 1556
1512 1509 1506 1503 1501 1498 1496 1493 1491 1491 1491 1492 1490 1491 1491 1494 1499 1504 1509 1513 1519 1524 1528 1533 1537 1541 1545 1548 1550 1554 1557 1559 1561 1561 1561 1561 1560 1560 1559 1558 1557 1556 1554
1509 1506 1504 1501 1498 1496 1494 1491 1488 1488 1488 1487 1487 1488 1485 1486 1491 1498 1504 1509 1515 1520 1525 1530 1534 1539 1542 1546 1550 1552 1555 1557 1558 1559 1559 1559 1558 1558 1556 1556 1555 1554 1553
1507 1505 1502 1499 1496 1494 1491 1489 1487 1486 1485 1484 1484 1484 1482 1482 1487 1493 1500 1505 1511 1517 1520 1526 1530 1535 1540 1544 1548 1551 1553 1554 1555 1557 1557 1556 1556 1555 1554 1555 1553 1553 1552
1504 1503 1500 1497 1494 1491 1488 1486 1485 1483 1482 1482 1481 1479 1479 1479 1482 1490 1495 1500 1507 1514 1518 1522 1527 1531 1537 1541 1545 1548 1550 1552 1553 1555 1555 1554 1553 1553 1553 1553 1552 1551 1551
1503 1501 1498 1495 1492 1490 1487 1485 1483 1482 1481 1481 1479 1479 1477 1476 1478 1486 1493 1498 1504 1512 1515 1520 1524 1529 1532 1538 1541 1544 1547 1548 1551 1552 1552 1552 1552 1552 1552 1552 1552 1550 1550
1501 1499 1496 1494 1491 1489 1486 1484 1481 1480 1480 1479 1478 1477 1477 1476 1477 1484 1491 1497 1503 1508 1513 1517 1522 1526 1531 1535 1539 1542 1544 1544 1546 1548 1549 1550 1550 1551 1550 1550 1549 1549 1548
1499 1497 1495 1492 1489 1487 1485 1483 1481 1480 1478 1479 1478 1477 1478 1482 1479 1482 1490 1496 1502 1507 1512 1516 1519 1524 1528 1534 1536 1539 1541 1543 1544 1544 1546 1547 1548 1548 1548 1547 1547 1546 1545
1498 1496 1494 1491 1488 1486 1484 1482 1481 1480 1479 1479 1478 1477 1479 1481 1481 1484 1489 1496 1501 1506 1510 1513 1517 1522 1527 1531 1534 1537 1538 1540 1541 1541 1543 1543 1545 1545 1545 1544 1543 1543 1541